KX-09 (44520 NORAD) Tracking and Keplerian Element Data

This shows tracking and keplerian element data for the satellite.

Feedback or suggestion? Click here.




ElementValue
Catalog44520
NameKX-09
Epoch Orbit286
Epoch Day262.17792913
Epoch Year2019
RAAN267.7829
Inclination97.7896
Eccentricity0.0010853
Argument of Perigee224.3992
Mean Anonmoly135.6369
Mean Motion14.8938457
Decay Rate4.5E-07
L11 44520U 19058B 19262.17792913 .00000045 00000-0 10529-4 0 9997
L22 44520 97.7896 267.7829 0010853 224.3992 135.6369 14.89384570 2860

Live tracking and technical data element details for KX-09 (NORAD 44520). KX-09 can be tracked NOW for your location showing map with azimuth and elevation plus other details from your city location.

Track the satellite on the map from your city or location and see movement details for azimuth, elevation, latitude, longitude, range, height, and movement on the map or in text.







IsCatalogInMostPopularTable: catalog: 44520, numindb: 6
Update: records affected: 1



GetName: 44520 KX-09

Hit Count: updated at: Thu, 19 Sep 2019 16:50:15 GMT